SCP
0 0 0 0 0 0 0 0 0 0 0 0 0 0 0 0 0 0 0 0 0 0 0 0 0 0 0 -0 -0 -0 -0 -0 0 -0 0 0 0 0 0 0 0 0 0 0
0 0 0 0 0 0 0 0 0 0 0 0 0 0 0 0 0 0 0 0 0 0 0 0 0 0 0 -0 -0 -0 -0 -0 -0 -0 0 0 0 0 0 0 0 0 0 0
0 0 0 0 0 0 0 0 0 0 0 0 0 0 0 0 0 0 0 0 0 0 0 0 0 0 0 -0 0 0 -0 -0 -0 0 -0 0 0 0 0 0 0 0 0 0
0 0 0 0 0 0 0 0 0 0 0 0 0 0 0 0 0 0 0 0 0 0 0 0 0 0 0 -0 0 -0 -0 0 -0 -0 -0 -0 0 0 0 0 0 0 0 0
0 0 0 0 0 0 0 0 0 0 0 0 0 0 0 0 0 0 0 0 0 0 0 0 0 0 0 0 0 0 -0 0 0 0 -0 -0 0 0 0 0 0 0 0 0
0 0 0 0 0 0 0 0 0 0 0 0 0 0 0 0 0 0 0 0 0 0 0 0 0 0 0 0 0 0 0 0 0 0 -0 -0 -0 -0 0 0 0 0 0 0
0 0 0 0 0 0 0 0 0 0 0 0 0 0 0 0 0 0 0 0 0 0 0 0 0 0 0 0 0 0 0 0 0 0 0 0 0 0 0 0 0 0 0 0
0 0 0 0 0 0 0 0 0 0 0 0 0 0 0 0 0 0 0 0 0 0 0 0 0 0 0 0 0 0 0 0 0 0 0 0 0 0 0 0 0 0 0 0
0 0 0 0 0 0 0 0 0 0 0 0 0 0 0 0 0 0 0 0 0 0 0 0 0 0 0 0 0 0 0 0 0 0 0 0 0 0 0 0 0 0 0 0
0 0 0 0 0 0 0 0 0 0 0 0 0 0 0 0 0 0 0 0 0 0 0 0 0 0 0 0 0 0 0 0 0 0 0 0 0 0 0 0 0 0 0 0
0 0 0 0 0 0 0 0 0 0 0 0 0 0 0 0 0 0 0 0 0 0 0 0 0 0 0 0 0 0 0 0 0 0 0 0 0 0 0 0 0 0 0 0
0 0 0 0 0 0 0 0 0 0 0 0 0 0 0 0 0 0 0 0 0 0 0 0 0 0 0 0 0 0 0 0 0 0 0 0 0 0 0 0 0 0 0 0
0 0 0 0 0 0 0 0 0 0 0 0 0 0 0 0 0 0 0 0 0 0 0 0 0 0 0 0 0 0 0 0 0 0 0 0 0 0 0 0 0 0 0 0
0 0 0 0 0 0 0 0 0 0 0 0 0 0 0 0 0 0 0 0 0 0 0 0 0 0 0 0 0 0 0 0 0 0 0 0 0 0 0 0 0 0 0 0
0 0 0 0 0 0 0 0 0 0 0 0 0 0 0 0 0 0 0 0 0 0 0 0 0 0 0 0 0 0 0 0 0 0 0 0 0 0 0 0 0 0 0 0
0 0 0 0 0 0 0 0 0 0 0 0 0 0 0 0 0 0 0 0 0 0 0 0 0 0 0 0 -0 -0 0 0 0 0 0 0 0 0 0 0 0 0 0 0
0 0 0 0 0 0 0 0 0 0 0 0 0 0 0 0 0 0 0 0 0 0 0 0 0 0 0 0 -0 0 0 0 0 0 0 0 0 0 0 0 0 0 0 0
0 0 0 0 0 0 0 0 0 0 0 0 0 0 0 0 0 0 0 0 0 0 0 0 0 0 0 0 0 0 0 0 0 0 0 0 0 0 0 0 0 0 0 0
0 0 0 0 0 0 0 0 0 0 0 0 0 0 0 0 0 0 0 0 0 0 0 0 0 0 0 0 0 0 0 0 0 0 0 0 0 0 0 0 0 0 0 0
0 0 0 0 0 0 0 0 0 0 0 0 0 0 0 0 0 0 0 0 0 0 0 0 0 0 0 0 0 0 0 0 0 0 0 0 0 0 0 0 0 0 0 0
0 0 0 0 0 0 0 0 0 0 0 0 0 0 0 0 0 0 0 0 0 0 0 0 0 0 0 0 0 0 0 0 0 0 0 0 0 0 0 0 0 0 0 0
0 0 0 0 0 0 0 0 0 0 0 0 0 0 0 0 0 0 0 0 0 0 0 0 0 0 0 0 0 0 0 0 0 0 0 0 0 0 0 0 0 0 0 0
0 0 0 0 0 0 0 0 0 0 0 0 0 0 0 0 0 0 0 0 0 0 0 0 0 0 0 0 0 0 0 0 0 0 0 0 0 0 0 0 0 0 0 0
0 0 0 0 0 0 0 0 0 0 0 0 0 0 0 0 0 0 0 0 0 0 0 0 0 0 0 0 0 0 0 0 0 0 0 0 0 0 0 0 0 0 0 0
0 0 0 0 0 0 0 0 0 0 0 0 0 0 0 0 0 0 0 0 0 0 0 0 0 0 0 0 0 0 0 0 0 0 0 0 0 0 0 0 0 0 0 0
0 0 0 0 0 0 0 0 0 0 0 0 0 0 0 0 0 0 0 0 0 0 0 0 0 0 0 0 0 0 0 0 0 0 0 0 0 0 0 0 0 0 0 0
0 0 0 0 0 0 0 0 0 0 0 0 0 0 0 0 0 0 0 0 0 0 0 0 0 0 0 0 0 0 0 0 0 0 0 0 0 0 0 0 0 0 0 0
Wind_Speed_500mb
62 57 48 45 41 30 25 15 2 14 17 6 6 7 10 7 7 7 4 1 4 6 5 6 3 4 4 23 12 7 6 6 5 2 4 2 4 4 4 7 4 2 3 5
67 60 50 45 44 39 34 12 9 14 23 7 2 4 6 3 6 7 8 3 3 1 4 7 3 3 4 15 14 6 8 6 4 7 10 8 8 5 6 8 4 2 7 7
67 61 54 50 46 41 39 12 2 6 12 7 17 12 5 1 4 6 8 6 4 6 4 5 5 3 5 14 19 15 1 5 6 9 5 0 4 3 1 6 5 5 6 6
73 65 57 54 50 48 41 16 6 9 5 5 10 8 10 9 8 4 12 3 6 9 5 4 2 4 7 6 24 11 8 5 8 5 10 3 5 7 3 6 5 5 6 3
73 77 69 62 53 55 48 16 13 10 8 26 15 1 12 18 9 13 8 7 11 9 8 9 12 5 3 4 10 8 7 1 4 7 12 11 6 7 8 6 6 10 12 11
80 74 70 71 62 64 25 36 22 10 18 10 9 11 14 19 22 12 8 16 10 7 7 10 7 6 4 6 4 4 6 6 7 8 12 14 11 8 3 1 3 5 7 3
82 77 76 78 73 73 39 47 30 13 7 6 10 14 12 17 17 15 10 29 9 12 19 11 9 16 11 3 1 5 8 8 5 4 9 5 12 11 9 5 4 6 10 7
85 82 82 82 71 68 70 44 31 14 5 10 6 19 10 27 18 7 14 12 10 24 10 7 11 9 11 9 7 3 6 7 5 6 4 11 12 4 5 6 3 3 9 7
92 83 85 85 74 65 69 52 43 15 23 17 17 18 30 10 7 6 7 21 27 10 9 8 8 8 8 6 12 10 11 12 8 4 8 9 10 1 12 8 5 14 11 11
95 86 85 83 79 70 64 71 54 27 9 15 37 13 28 22 15 7 12 16 8 7 5 5 5 6 3 4 14 10 6 3 8 7 4 16 17 24 13 11 9 16 2 3
102 90 85 82 84 75 66 67 62 41 12 33 33 36 39 33 31 9 24 12 2 6 5 6 6 6 9 4 7 11 12 13 8 6 4 13 19 2 9 9 7 10 17 13
103 96 88 83 85 80 71 61 68 47 15 12 38 37 23 49 54 34 49 17 17 23 7 1 5 1 2 5 5 5 4 11 9 17 12 13 15 9 15 8 20 14 17 36
108 102 94 85 85 84 79 64 67 57 27 12 24 37 39 37 45 35 23 13 21 23 15 18 5 5 6 7 9 5 6 13 5 4 10 34 48 37 35 44 40 49 42 28
111 108 98 90 85 83 85 71 62 68 23 9 14 46 33 47 34 41 36 23 26 29 19 8 5 4 14 5 3 6 10 19 11 12 20 35 56 55 33 25 28 30 43 42
118 109 105 98 86 82 86 72 63 73 21 20 10 16 47 53 49 42 34 30 39 31 11 6 4 4 4 5 0 10 29 14 13 14 26 20 36 41 35 35 46 53 59 58
120 114 107 100 93 92 90 35 66 72 49 5 2 6 20 37 50 49 45 37 33 24 12 8 9 9 9 3 6 14 39 61 61 37 28 41 58 63 63 62 63 60 47 39
127 117 109 106 101 100 90 22 31 80 63 12 3 3 12 31 33 37 44 46 25 18 13 10 9 10 15 3 10 8 29 39 52 57 56 59 68 64 56 52 66 69 61 57
122 112 108 102 100 91 89 28 39 78 59 17 6 3 11 32 15 15 19 23 17 17 14 7 11 13 11 8 48 51 63 54 61 69 67 73 74 77 83 74 64 61 68 62
117 109 99 93 90 61 62 62 43 82 33 21 13 15 10 31 12 16 12 13 5 17 10 12 20 5 12 41 53 60 81 41 44 42 40 46 57 65 68 65 61 59 60 57
112 103 68 24 51 60 71 55 54 30 27 18 7 24 8 29 12 8 14 11 6 6 9 20 9 8 58 79 76 81 82 75 62 48 64 64 60 59 56 51 48 49 49 49
87 41 22 52 92 74 28 20 17 21 9 29 20 21 15 24 9 7 9 6 3 6 9 12 6 6 40 96 90 98 95 95 91 85 80 73 66 63 57 51 42 46 51 57
62 51 59 84 28 16 13 11 12 11 15 19 19 26 28 22 17 12 14 7 4 12 16 6 6 9 55 62 62 64 60 59 63 63 64 62 58 57 58 54 50 51 52 53
72 32 26 20 15 11 25 22 9 11 13 23 32 12 21 15 11 13 7 10 12 23 9 9 9 25 45 52 50 55 55 51 54 56 56 57 55 53 55 55 53 52 54 43
14 11 14 11 10 10 9 10 12 25 36 70 64 22 14 13 8 8 11 6 9 6 9 13 7 51 54 52 50 52 55 52 51 54 54 54 52 51 54 56 55 50 43 37
11 13 10 6 10 11 22 33 38 28 84 71 31 17 14 4 8 7 10 7 10 12 10 9 34 44 48 49 48 53 54 54 54 52 54 51 47 47 52 53 48 40 32 25
10 9 9 14 11 5 12 29 41 54 64 54 17 9 9 7 10 9 13 18 15 9 8 31 31 36 39 38 38 42 47 51 54 54 51 48 48 48 48 43 35 27 23 20
10 3 21 14 22 17 17 33 42 68 57 6 7 12 13 6 8 10 10 11 8 17 22 16 16 22 27 25 28 36 48 54 51 47 43 46 47 43 36 31 26 23 22 21
Wind_Direction_500mb
213 220 218 215 213 211 207 195 59 180 176 98 52 136 192 159 158 146 156 161 134 146 166 95 124 145 170 354 327 4 328 327 56 102 213 220 98 105 62 114 232 12 115 266
213 216 214 215 209 206 195 197 179 180 177 144 148 157 307 230 138 182 157 187 190 110 96 88 180 244 283 11 26 26 323 344 46 358 2 8 32 22 77 90 53 232 123 261
209 214 212 212 203 199 196 187 102 166 173 151 134 142 200 99 213 171 154 139 142 95 70 41 185 327 1 357 10 5 51 72 143 181 207 261 297 10 85 99 96 179 217 291
206 211 211 207 201 194 196 203 220 167 205 232 129 110 134 141 167 222 185 27 217 154 109 24 48 294 341 32 8 33 75 104 9 335 10 319 252 277 144 185 166 190 210 262
208 207 210 208 201 195 196 189 165 156 108 143 113 217 215 164 179 150 224 186 183 166 153 178 182 162 133 195 1 47 12 148 92 319 351 358 281 302 260 222 177 230 266 287
206 206 201 205 201 193 190 203 182 187 158 133 109 197 183 193 145 208 209 167 136 170 205 171 130 130 149 139 109 97 70 96 53 275 344 339 348 215 195 154 195 182 203 193
206 203 202 204 202 200 201 192 176 161 202 157 189 155 155 167 180 147 170 166 136 164 137 128 94 68 66 117 97 155 112 84 75 217 16 20 248 311 233 201 43 37 78 37
206 200 201 204 204 202 204 194 190 174 125 156 129 156 135 142 133 96 138 158 157 149 121 59 40 347 20 340 6 90 113 110 61 102 183 286 332 49 118 163 172 96 102 3
202 201 201 202 201 202 206 203 195 187 131 219 158 147 159 139 128 35 107 134 148 144 80 71 136 207 195 298 352 12 103 91 104 93 119 203 237 172 29 83 307 165 105 41
200 200 198 200 202 203 205 204 204 196 158 166 168 160 175 154 142 114 133 143 141 152 75 82 143 249 200 188 158 164 101 89 148 171 245 287 248 262 300 87 241 178 204 45
199 198 197 199 198 198 201 202 203 201 195 177 186 179 164 158 159 149 153 104 178 67 102 139 208 147 219 96 185 176 162 146 190 132 82 281 206 73 167 176 140 246 286 258
199 196 194 194 195 196 198 200 201 196 187 179 199 203 194 207 186 148 164 162 153 165 101 144 96 154 105 168 233 286 196 182 176 184 210 237 193 212 207 217 311 279 283 292
197 195 192 193 194 195 200 200 195 195 197 195 200 209 199 198 202 203 149 178 161 172 154 154 157 198 134 168 236 175 262 180 206 123 243 239 255 257 266 276 284 297 300 295
195 194 191 193 191 194 201 197 196 191 169 186 215 214 205 204 193 204 208 179 168 166 150 124 134 165 201 218 237 195 195 152 188 267 272 266 272 264 273 280 286 288 295 295
193 191 191 191 188 191 200 203 202 193 181 180 165 190 209 208 203 198 199 192 180 165 130 89 202 186 163 231 137 217 197 181 190 227 202 235 265 285 293 288 290 296 299 294
187 191 190 187 187 186 189 189 209 199 200 127 87 168 191 191 203 201 201 197 189 183 156 154 209 193 195 233 254 241 206 217 222 235 237 257 277 284 283 283 289 297 298 295
189 188 185 187 188 188 181 188 190 194 194 174 149 193 163 177 161 178 187 192 190 175 154 204 176 193 189 193 255 203 216 222 233 246 256 265 268 269 287 289 298 299 295 290
185 184 185 185 189 192 194 181 181 184 180 180 151 237 145 163 139 128 153 170 166 179 189 176 171 174 177 252 247 260 256 253 256 257 260 263 272 277 281 286 291 289 288 290
182 183 181 185 184 191 181 183 170 177 180 180 154 156 184 161 120 119 121 141 135 182 187 210 169 179 214 231 250 252 260 249 262 275 269 262 258 271 283 290 291 285 283 285
181 176 175 182 188 182 169 147 167 178 209 206 159 147 146 159 126 112 124 152 172 179 225 163 212 235 238 247 251 262 268 271 275 271 280 280 276 279 285 285 285 283 283 283
170 173 157 144 142 144 155 153 169 189 194 177 150 157 131 166 133 142 169 159 140 157 240 179 237 250 239 248 249 257 263 268 272 273 275 278 282 284 286 286 284 284 283 281
174 158 131 147 149 155 143 164 166 182 198 157 140 148 137 140 148 112 171 135 119 224 152 152 249 235 237 249 252 259 259 264 265 268 270 274 277 282 283 276 285 285 287 288
139 148 166 160 170 153 171 179 183 150 151 151 140 122 135 130 139 106 148 140 199 118 187 222 217 227 230 245 251 260 262 260 263 264 267 273 276 280 277 278 281 281 289 284
131 136 132 188 163 185 181 157 145 145 149 154 150 120 133 135 127 146 150 164 107 197 223 220 221 220 235 247 255 261 272 273 271 269 271 276 276 276 272 277 280 282 280 273
121 134 145 145 120 83 136 125 123 140 151 142 129 86 115 148 137 166 105 148 218 210 221 216 235 244 254 262 265 264 272 276 276 271 274 278 274 272 276 275 273 269 263 254
113 102 94 108 88 2 125 123 121 140 147 140 118 128 141 166 151 138 195 156 210 221 216 217 231 243 254 263 271 274 276 276 273 268 272 270 268 269 268 264 254 240 228 220
86 102 137 113 124 145 139 139 140 151 149 139 130 141 184 112 140 180 169 198 207 209 227 242 262 277 279 270 258 254 259 264 271 271 269 267 266 263 257 243 222 211 210 213
Wind_Speed_850mb
62 57 48 45 41 30 25 15 2 14 17 6 6 7 10 7 7 7 4 1 4 6 5 6 3 4 4 23 12 7 6 6 5 2 4 2 4 4 4 7 4 2 3 5
67 60 50 45 44 39 34 12 9 14 23 7 2 4 6 3 6 7 8 3 3 1 4 7 3 3 4 15 14 6 8 6 4 7 10 8 8 5 6 8 4 2 7 7
67 61 54 50 46 41 39 12 2 6 12 7 17 12 5 1 4 6 8 6 4 6 4 5 5 3 5 14 19 15 1 5 6 9 5 0 4 3 1 6 5 5 6 6
73 65 57 54 50 48 41 16 6 9 5 5 10 8 10 9 8 4 12 3 6 9 5 4 2 4 7 6 24 11 8 5 8 5 10 3 5 7 3 6 5 5 6 3
73 77 69 62 53 55 48 16 13 10 8 26 15 1 12 18 9 13 8 7 11 9 8 9 12 5 3 4 10 8 7 1 4 7 12 11 6 7 8 6 6 10 12 11
80 74 70 71 62 64 25 36 22 10 18 10 9 11 14 19 22 12 8 16 10 7 7 10 7 6 4 6 4 4 6 6 7 8 12 14 11 8 3 1 3 5 7 3
82 77 76 78 73 73 39 47 30 13 7 6 10 14 12 17 17 15 10 29 9 12 19 11 9 16 11 3 1 5 8 8 5 4 9 5 12 11 9 5 4 6 10 7
85 82 82 82 71 68 70 44 31 14 5 10 6 19 10 27 18 7 14 12 10 24 10 7 11 9 11 9 7 3 6 7 5 6 4 11 12 4 5 6 3 3 9 7
92 83 85 85 74 65 69 52 43 15 23 17 17 18 30 10 7 6 7 21 27 10 9 8 8 8 8 6 12 10 11 12 8 4 8 9 10 1 12 8 5 14 11 11
95 86 85 83 79 70 64 71 54 27 9 15 37 13 28 22 15 7 12 16 8 7 5 5 5 6 3 4 14 10 6 3 8 7 4 16 17 24 13 11 9 16 2 3
102 90 85 82 84 75 66 67 62 41 12 33 33 36 39 33 31 9 24 12 2 6 5 6 6 6 9 4 7 11 12 13 8 6 4 13 19 2 9 9 7 10 17 13
103 96 88 83 85 80 71 61 68 47 15 12 38 37 23 49 54 34 49 17 17 23 7 1 5 1 2 5 5 5 4 11 9 17 12 13 15 9 15 8 20 14 17 36
108 102 94 85 85 84 79 64 67 57 27 12 24 37 39 37 45 35 23 13 21 23 15 18 5 5 6 7 9 5 6 13 5 4 10 34 48 37 35 44 40 49 42 28
111 108 98 90 85 83 85 71 62 68 23 9 14 46 33 47 34 41 36 23 26 29 19 8 5 4 14 5 3 6 10 19 11 12 20 35 56 55 33 25 28 30 43 42
118 109 105 98 86 82 86 72 63 73 21 20 10 16 47 53 49 42 34 30 39 31 11 6 4 4 4 5 0 10 29 14 13 14 26 20 36 41 35 35 46 53 59 58
120 114 107 100 93 92 90 35 66 72 49 5 2 6 20 37 50 49 45 37 33 24 12 8 9 9 9 3 6 14 39 61 61 37 28 41 58 63 63 62 63 60 47 39
127 117 109 106 101 100 90 22 31 80 63 12 3 3 12 31 33 37 44 46 25 18 13 10 9 10 15 3 10 8 29 39 52 57 56 59 68 64 56 52 66 69 61 57
122 112 108 102 100 91 89 28 39 78 59 17 6 3 11 32 15 15 19 23 17 17 14 7 11 13 11 8 48 51 63 54 61 69 67 73 74 77 83 74 64 61 68 62
117 109 99 93 90 61 62 62 43 82 33 21 13 15 10 31 12 16 12 13 5 17 10 12 20 5 12 41 53 60 81 41 44 42 40 46 57 65 68 65 61 59 60 57
112 103 68 24 51 60 71 55 54 30 27 18 7 24 8 29 12 8 14 11 6 6 9 20 9 8 58 79 76 81 82 75 62 48 64 64 60 59 56 51 48 49 49 49
87 41 22 52 92 74 28 20 17 21 9 29 20 21 15 24 9 7 9 6 3 6 9 12 6 6 40 96 90 98 95 95 91 85 80 73 66 63 57 51 42 46 51 57
62 51 59 84 28 16 13 11 12 11 15 19 19 26 28 22 17 12 14 7 4 12 16 6 6 9 55 62 62 64 60 59 63 63 64 62 58 57 58 54 50 51 52 53
72 32 26 20 15 11 25 22 9 11 13 23 32 12 21 15 11 13 7 10 12 23 9 9 9 25 45 52 50 55 55 51 54 56 56 57 55 53 55 55 53 52 54 43
14 11 14 11 10 10 9 10 12 25 36 70 64 22 14 13 8 8 11 6 9 6 9 13 7 51 54 52 50 52 55 52 51 54 54 54 52 51 54 56 55 50 43 37
11 13 10 6 10 11 22 33 38 28 84 71 31 17 14 4 8 7 10 7 10 12 10 9 34 44 48 49 48 53 54 54 54 52 54 51 47 47 52 53 48 40 32 25
10 9 9 14 11 5 12 29 41 54 64 54 17 9 9 7 10 9 13 18 15 9 8 31 31 36 39 38 38 42 47 51 54 54 51 48 48 48 48 43 35 27 23 20
10 3 21 14 22 17 17 33 42 68 57 6 7 12 13 6 8 10 10 11 8 17 22 16 16 22 27 25 28 36 48 54 51 47 43 46 47 43 36 31 26 23 22 21
Wind_Direction_850mb
213 220 218 215 213 211 207 195 59 180 176 98 52 136 192 159 158 146 156 161 134 146 166 95 124 145 170 354 327 4 328 327 56 102 213 220 98 105 62 114 232 12 115 266
213 216 214 215 209 206 195 197 179 180 177 144 148 157 307 230 138 182 157 187 190 110 96 88 180 244 283 11 26 26 323 344 46 358 2 8 32 22 77 90 53 232 123 261
209 214 212 212 203 199 196 187 102 166 173 151 134 142 200 99 213 171 154 139 142 95 70 41 185 327 1 357 10 5 51 72 143 181 207 261 297 10 85 99 96 179 217 291
206 211 211 207 201 194 196 203 220 167 205 232 129 110 134 141 167 222 185 27 217 154 109 24 48 294 341 32 8 33 75 104 9 335 10 319 252 277 144 185 166 190 210 262
208 207 210 208 201 195 196 189 165 156 108 143 113 217 215 164 179 150 224 186 183 166 153 178 182 162 133 195 1 47 12 148 92 319 351 358 281 302 260 222 177 230 266 287
206 206 201 205 201 193 190 203 182 187 158 133 109 197 183 193 145 208 209 167 136 170 205 171 130 130 149 139 109 97 70 96 53 275 344 339 348 215 195 154 195 182 203 193
206 203 202 204 202 200 201 192 176 161 202 157 189 155 155 167 180 147 170 166 136 164 137 128 94 68 66 117 97 155 112 84 75 217 16 20 248 311 233 201 43 37 78 37
206 200 201 204 204 202 204 194 190 174 125 156 129 156 135 142 133 96 138 158 157 149 121 59 40 347 20 340 6 90 113 110 61 102 183 286 332 49 118 163 172 96 102 3
202 201 201 202 201 202 206 203 195 187 131 219 158 147 159 139 128 35 107 134 148 144 80 71 136 207 195 298 352 12 103 91 104 93 119 203 237 172 29 83 307 165 105 41
200 200 198 200 202 203 205 204 204 196 158 166 168 160 175 154 142 114 133 143 141 152 75 82 143 249 200 188 158 164 101 89 148 171 245 287 248 262 300 87 241 178 204 45
199 198 197 199 198 198 201 202 203 201 195 177 186 179 164 158 159 149 153 104 178 67 102 139 208 147 219 96 185 176 162 146 190 132 82 281 206 73 167 176 140 246 286 258
199 196 194 194 195 196 198 200 201 196 187 179 199 203 194 207 186 148 164 162 153 165 101 144 96 154 105 168 233 286 196 182 176 184 210 237 193 212 207 217 311 279 283 292
197 195 192 193 194 195 200 200 195 195 197 195 200 209 199 198 202 203 149 178 161 172 154 154 157 198 134 168 236 175 262 180 206 123 243 239 255 257 266 276 284 297 300 295
195 194 191 193 191 194 201 197 196 191 169 186 215 214 205 204 193 204 208 179 168 166 150 124 134 165 201 218 237 195 195 152 188 267 272 266 272 264 273 280 286 288 295 295
193 191 191 191 188 191 200 203 202 193 181 180 165 190 209 208 203 198 199 192 180 165 130 89 202 186 163 231 137 217 197 181 190 227 202 235 265 285 293 288 290 296 299 294
187 191 190 187 187 186 189 189 209 199 200 127 87 168 191 191 203 201 201 197 189 183 156 154 209 193 195 233 254 241 206 217 222 235 237 257 277 284 283 283 289 297 298 295
189 188 185 187 188 188 181 188 190 194 194 174 149 193 163 177 161 178 187 192 190 175 154 204 176 193 189 193 255 203 216 222 233 246 256 265 268 269 287 289 298 299 295 290
185 184 185 185 189 192 194 181 181 184 180 180 151 237 145 163 139 128 153 170 166 179 189 176 171 174 177 252 247 260 256 253 256 257 260 263 272 277 281 286 291 289 288 290
182 183 181 185 184 191 181 183 170 177 180 180 154 156 184 161 120 119 121 141 135 182 187 210 169 179 214 231 250 252 260 249 262 275 269 262 258 271 283 290 291 285 283 285
181 176 175 182 188 182 169 147 167 178 209 206 159 147 146 159 126 112 124 152 172 179 225 163 212 235 238 247 251 262 268 271 275 271 280 280 276 279 285 285 285 283 283 283
170 173 157 144 142 144 155 153 169 189 194 177 150 157 131 166 133 142 169 159 140 157 240 179 237 250 239 248 249 257 263 268 272 273 275 278 282 284 286 286 284 284 283 281
174 158 131 147 149 155 143 164 166 182 198 157 140 148 137 140 148 112 171 135 119 224 152 152 249 235 237 249 252 259 259 264 265 268 270 274 277 282 283 276 285 285 287 288
139 148 166 160 170 153 171 179 183 150 151 151 140 122 135 130 139 106 148 140 199 118 187 222 217 227 230 245 251 260 262 260 263 264 267 273 276 280 277 278 281 281 289 284
131 136 132 188 163 185 181 157 145 145 149 154 150 120 133 135 127 146 150 164 107 197 223 220 221 220 235 247 255 261 272 273 271 269 271 276 276 276 272 277 280 282 280 273
121 134 145 145 120 83 136 125 123 140 151 142 129 86 115 148 137 166 105 148 218 210 221 216 235 244 254 262 265 264 272 276 276 271 274 278 274 272 276 275 273 269 263 254
113 102 94 108 88 2 125 123 121 140 147 140 118 128 141 166 151 138 195 156 210 221 216 217 231 243 254 263 271 274 276 276 273 268 272 270 268 269 268 264 254 240 228 220
86 102 137 113 124 145 139 139 140 151 149 139 130 141 184 112 140 180 169 198 207 209 227 242 262 277 279 270 258 254 259 264 271 271 269 267 266 263 257 243 222 211 210 213